• In Latvia
  • List of Countries
  • For 7 days
  • Water Temperature
  • Satellite Maps
  • Weather Map
  • Weather Widgets
  • user-avatar
    Login

    Hourly Weather Snizhne

    Today, 23 October, Tuesday

    Time Temperature Precipitation Wind Pressure Humidity
    00:00 +12°C° 0.2 mm 2 mps 737 mmHg 83%
    01:00 +12°C° 0.1 mm 2 mps 737 mmHg 84%
    02:00 +12°C° 0.1 mm 2 mps 737 mmHg 85%
    03:00 +12°C° 0.1 mm 2 mps 737 mmHg 86%
    04:00 +12°C° 0 mm 2 mps 736 mmHg 87%
    05:00 +12°C° 0 mm 2 mps 736 mmHg 88%
    06:00 +11°C° 0 mm 3 mps 736 mmHg 89%
    07:00 +11°C° 0 mm 3 mps 736 mmHg 85%
    08:00 +10°C° 0 mm 3 mps 736 mmHg 82%
    09:00 +10°C° 0 mm 4 mps 736 mmHg 79%
    10:00 +11°C° 0 mm 4 mps 736 mmHg 73%
    11:00 +12°C° 0 mm 4 mps 736 mmHg 67%
    12:00 +13°C° 0 mm 5 mps 736 mmHg 60%
    13:00 +13°C° 0 mm 5 mps 736 mmHg 55%
    14:00 +14°C° 0 mm 5 mps 735 mmHg 50%
    15:00 +14°C° 0 mm 5 mps 735 mmHg 45%
    16:00 +13°C° 0 mm 4 mps 734 mmHg 48%
    17:00 +12°C° 0 mm 4 mps 734 mmHg 50%
    18:00 +11°C° 0 mm 3 mps 734 mmHg 53%
    19:00 +11°C° 0 mm 3 mps 733 mmHg 56%
    20:00 +10°C° 0 mm 3 mps 733 mmHg 59%
    21:00 +10°C° 0 mm 4 mps 733 mmHg 62%
    22:00 +10°C° 0 mm 4 mps 732 mmHg 64%
    23:00 +8°C° 0 mm 4 mps 732 mmHg 65%

    Tomorrow, 24 October, Wednesday

    Time Temperature Precipitation Wind Pressure Humidity
    00:00 +8°C° 0 mm 4 mps 732 mmHg 67%
    01:00 +8°C° 0 mm 4 mps 731 mmHg 66%
    02:00 +8°C° 0 mm 4 mps 730 mmHg 64%
    03:00 +7°C° 0 mm 4 mps 730 mmHg 63%
    04:00 +7°C° 0 mm 4 mps 729 mmHg 63%
    05:00 +8°C° 0 mm 5 mps 728 mmHg 63%
    06:00 +8°C° 0 mm 5 mps 727 mmHg 63%
    07:00 +8°C° 0.1 mm 6 mps 727 mmHg 64%
    08:00 +9°C° 0.1 mm 7 mps 726 mmHg 66%
    09:00 +10°C° 0.1 mm 8 mps 726 mmHg 68%
    10:00 +10°C° 0.6 mm 9 mps 725 mmHg 69%
    11:00 +11°C° 0.6 mm 9 mps 724 mmHg 71%
    12:00 +11°C° 0.6 mm 9 mps 724 mmHg 72%
    13:00 +11°C° 1 mm 9 mps 723 mmHg 73%
    14:00 +11°C° 1 mm 9 mps 722 mmHg 74%
    15:00 +11°C° 1 mm 9 mps 722 mmHg 75%
    16:00 +11°C° 0.5 mm 8 mps 721 mmHg 76%
    17:00 +10°C° 0.5 mm 7 mps 721 mmHg 77%
    18:00 +10°C° 0.5 mm 7 mps 720 mmHg 79%
    19:00 +10°C° 0.8 mm 7 mps 719 mmHg 80%
    20:00 +10°C° 0.8 mm 8 mps 719 mmHg 81%
    21:00 +10°C° 0.8 mm 8 mps 718 mmHg 82%
    22:00 +10°C° 0.7 mm 8 mps 718 mmHg 82%
    23:00 +10°C° 0.7 mm 8 mps 717 mmHg 82%

    Day after tomorrow, 25 October, Thursday

    Time Temperature Precipitation Wind Pressure Humidity
    00:00 +10°C° 0.7 mm 8 mps 717 mmHg 81%
    01:00 +9°C° 0.2 mm 8 mps 717 mmHg 79%
    02:00 +9°C° 0.2 mm 7 mps 717 mmHg 77%
    03:00 +8°C° 0.2 mm 7 mps 717 mmHg 74%
    04:00 +7°C° 0.1 mm 6 mps 718 mmHg 73%
    05:00 +5°C° 0.1 mm 6 mps 718 mmHg 71%
    06:00 +4°C° 0.1 mm 6 mps 718 mmHg 69%
    07:00 +4°C° 0 mm 6 mps 719 mmHg 69%
    08:00 +4°C° 0 mm 6 mps 720 mmHg 68%
    09:00 +4°C° 0 mm 7 mps 721 mmHg 67%
    10:00 +5°C° 0 mm 7 mps 721 mmHg 63%
    11:00 +5°C° 0 mm 7 mps 722 mmHg 59%
    12:00 +6°C° 0 mm 7 mps 722 mmHg 54%
    13:00 +6°C° 0 mm 7 mps 722 mmHg 53%
    14:00 +8°C° 0 mm 7 mps 722 mmHg 51%
    15:00 +8°C° 0 mm 7 mps 723 mmHg 50%
    16:00 +7°C° 0 mm 6 mps 723 mmHg 54%
    17:00 +7°C° 0 mm 5 mps 723 mmHg 57%
    18:00 +6°C° 0 mm 4 mps 724 mmHg 61%
    19:00 +6°C° 0 mm 4 mps 724 mmHg 63%
    20:00 +5°C° 0 mm 3 mps 725 mmHg 66%
    21:00 +5°C° 0 mm 3 mps 725 mmHg 69%
    22:00 +4°C° 0 mm 3 mps 725 mmHg 70%
    23:00 +4°C° 0 mm 3 mps 725 mmHg 71%

    26 October, Friday

    Time Temperature Precipitation Wind Pressure Humidity
    00:00 +4°C° 0 mm 3 mps 726 mmHg 72%
    01:00 +3°C° 0 mm 4 mps 726 mmHg 74%
    02:00 +3°C° 0 mm 4 mps 726 mmHg 76%
    03:00 +3°C° 0 mm 4 mps 726 mmHg 79%
    04:00 +2°C° 0 mm 3 mps 727 mmHg 79%
    05:00 +2°C° 0 mm 3 mps 727 mmHg 80%
    06:00 +2°C° 0 mm 3 mps 727 mmHg 80%
    07:00 +2°C° 0 mm 3 mps 728 mmHg 76%
    08:00 +3°C° 0 mm 3 mps 728 mmHg 71%
    09:00 +4°C° 0 mm 3 mps 729 mmHg 66%
    10:00 +5°C° 0 mm 3 mps 729 mmHg 61%
    11:00 +6°C° 0 mm 2 mps 729 mmHg 56%
    12:00 +7°C° 0 mm 2 mps 730 mmHg 50%
    13:00 +7°C° 0.2 mm 2 mps 730 mmHg 51%
    14:00 +7°C° 0.2 mm 2 mps 730 mmHg 52%
    15:00 +8°C° 0.2 mm 1 mps 730 mmHg 53%
    16:00 +7°C° 0 mm 2 mps 731 mmHg 54%
    17:00 +6°C° 0 mm 2 mps 732 mmHg 56%
    18:00 +6°C° 0 mm 2 mps 732 mmHg 58%
    19:00 +5°C° 0 mm 2 mps 733 mmHg 59%
    20:00 +5°C° 0 mm 2 mps 734 mmHg 60%
    21:00 +5°C° 0 mm 2 mps 734 mmHg 61%
    22:00 +4°C° 0 mm 2 mps 735 mmHg 62%
    23:00 +4°C° 0 mm 2 mps 736 mmHg 63%

    27 October, Saturday

    Time Temperature Precipitation Wind Pressure Humidity
    00:00 +3°C° 0 mm 3 mps 736 mmHg 64%
    01:00 +3°C° 0 mm 3 mps 737 mmHg 66%
    02:00 +2°C° 0 mm 3 mps 737 mmHg 68%
    03:00 +2°C° 0 mm 3 mps 738 mmHg 69%
    04:00 +2°C° 0 mm 3 mps 738 mmHg 71%
    05:00 +2°C° 0 mm 3 mps 739 mmHg 72%
    06:00 +2°C° 0 mm 3 mps 739 mmHg 74%
    07:00 +3°C° 0 mm 4 mps 740 mmHg 71%
    08:00 +4°C° 0 mm 4 mps 740 mmHg 68%
    09:00 +4°C° 0 mm 4 mps 741 mmHg 65%
    10:00 +6°C° 0 mm 5 mps 741 mmHg 60%
    11:00 +7°C° 0 mm 5 mps 741 mmHg 54%
    12:00 +9°C° 0 mm 5 mps 742 mmHg 49%
    13:00 +9°C° 0 mm 5 mps 741 mmHg 48%
    14:00 +10°C° 0 mm 5 mps 741 mmHg 47%
    15:00 +10°C° 0 mm 5 mps 741 mmHg 47%
    16:00 +9°C° 0 mm 5 mps 741 mmHg 53%
    17:00 +8°C° 0 mm 5 mps 741 mmHg 60%
    18:00 +8°C° 0 mm 4 mps 741 mmHg 66%
    19:00 +8°C° 0 mm 5 mps 741 mmHg 68%
    20:00 +7°C° 0 mm 5 mps 741 mmHg 70%
    21:00 +7°C° 0 mm 5 mps 741 mmHg 72%
    22:00 +7°C° 0 mm 5 mps 741 mmHg 74%
    23:00 +8°C° 0 mm 5 mps 741 mmHg 76%

    28 October, Sunday

    Time Temperature Precipitation Wind Pressure Humidity
    00:00 +8°C° 0 mm 5 mps 741 mmHg 78%
    01:00 +8°C° 0 mm 5 mps 741 mmHg 80%
    02:00 +8°C° 0 mm 5 mps 741 mmHg 83%
    03:00 +7°C° 0 mm 5 mps 741 mmHg 85%
    04:00 +7°C° 0 mm 5 mps 741 mmHg 87%
    05:00 +7°C° 0 mm 5 mps 741 mmHg 88%
    06:00 +8°C° 0 mm 6 mps 741 mmHg 89%
    07:00 +8°C° 0 mm 6 mps 741 mmHg 86%
    08:00 +9°C° 0 mm 7 mps 741 mmHg 84%
    09:00 +10°C° 0 mm 7 mps 741 mmHg 81%
    10:00 +11°C° 0 mm 8 mps 741 mmHg 76%
    11:00 +12°C° 0 mm 8 mps 741 mmHg 70%
    12:00 +15°C° 0 mm 8 mps 741 mmHg 65%
    13:00 +15°C° 0 mm 8 mps 741 mmHg 63%
    14:00 +16°C° 0 mm 8 mps 740 mmHg 61%
    15:00 +16°C° 0 mm 8 mps 740 mmHg 58%
    16:00 +15°C° 0 mm 7 mps 740 mmHg 60%
    17:00 +14°C° 0 mm 7 mps 740 mmHg 61%
    18:00 +13°C° 0 mm 6 mps 740 mmHg 63%
    19:00 +13°C° 0 mm 6 mps 740 mmHg 62%
    20:00 +13°C° 0 mm 6 mps 740 mmHg 62%
    21:00 +13°C° 0 mm 6 mps 740 mmHg 62%
    22:00 +12°C° 0 mm 5 mps 740 mmHg 63%
    23:00 +12°C° 0 mm 5 mps 740 mmHg 65%

    29 October, Monday

    Time Temperature Precipitation Wind Pressure Humidity
    00:00 +12°C° 0 mm 5 mps 740 mmHg 66%
    01:00 +10°C° 0 mm 5 mps 740 mmHg 67%
    02:00 +10°C° 0 mm 5 mps 740 mmHg 68%
    03:00 +10°C° 0 mm 5 mps 740 mmHg 69%
    04:00 +10°C° 0 mm 5 mps 740 mmHg 70%
    05:00 +10°C° 0 mm 4 mps 740 mmHg 71%
    06:00 +10°C° 0 mm 4 mps 740 mmHg 72%
    07:00 +11°C° 0 mm 4 mps 740 mmHg 70%
    08:00 +11°C° 0 mm 4 mps 741 mmHg 69%
    09:00 +12°C° 0 mm 4 mps 741 mmHg 67%
    10:00 +14°C° 0 mm 4 mps 741 mmHg 62%
    11:00 +15°C° 0 mm 4 mps 741 mmHg 57%
    12:00 +18°C° 0 mm 4 mps 741 mmHg 52%
    13:00 +18°C° 0 mm 4 mps 741 mmHg 49%
    14:00 +19°C° 0 mm 4 mps 741 mmHg 47%
    15:00 +19°C° 0 mm 4 mps 741 mmHg 45%
    16:00 +18°C° 0 mm 3 mps 741 mmHg 48%
    17:00 +16°C° 0 mm 3 mps 741 mmHg 50%
    18:00 +15°C° 0 mm 2 mps 741 mmHg 53%
    19:00 +14°C° 0 mm 2 mps 741 mmHg 51%
    20:00 +14°C° 0 mm 2 mps 741 mmHg 50%
    21:00 +13°C° 0 mm 2 mps 741 mmHg 48%
    22:00 +13°C° 0 mm 2 mps 741 mmHg 48%
    23:00 +12°C° 0 mm 2 mps 741 mmHg 49%
    Show more